Wind_Speed
30 31 31 31 32 32 32 33 33 33 33 35 35 35 34 34 34 34 35 36 37 37 36 37 37 38 39 40 41 41 43 44 45 46 46 47 48 49 49 50 50 49 49 49
31 32 32 33 33 33 33 34 33 34 34 35 35 34 34 34 34 34 35 36 37 37 37 37 38 38 38 39 40 41 41 43 44 45 46 47 48 49 49 50 51 50 50 50
33 33 34 34 34 34 35 35 35 35 35 36 36 35 33 34 34 35 36 37 37 38 38 38 38 38 38 39 40 41 41 42 44 45 45 46 47 48 48 48 49 50 50 50
34 34 34 35 36 36 36 36 36 36 36 36 36 37 33 33 34 34 35 36 37 38 38 38 38 37 37 38 39 40 40 41 43 44 45 46 46 48 48 49 49 50 50 49
34 35 35 36 36 36 36 36 37 37 37 37 36 38 34 33 33 33 34 35 36 37 37 37 37 37 37 38 39 40 41 42 43 43 45 45 45 46 48 48 50 50 50 50
35 36 36 36 36 36 37 37 37 38 37 38 36 37 36 34 33 33 33 34 35 36 36 37 38 38 38 39 40 40 41 42 42 43 43 43 44 45 46 47 48 49 50 50
36 35 36 36 36 36 37 37 38 38 38 37 36 37 36 35 33 33 33 33 34 34 35 36 37 37 38 39 39 39 40 41 41 42 42 42 43 44 45 45 46 48 49 50
37 36 36 36 36 36 37 37 38 39 39 38 37 37 35 34 34 33 33 34 33 33 34 35 36 37 38 38 38 38 39 40 40 41 41 40 41 42 44 45 46 47 48 49
38 38 38 37 36 36 37 37 37 38 39 40 38 37 35 33 33 33 32 33 33 33 34 35 36 37 37 38 38 38 38 39 39 40 40 40 41 41 43 44 45 46 47 48
39 40 39 38 37 36 36 37 36 37 38 39 38 36 35 33 32 33 33 33 33 33 33 34 35 36 37 38 38 38 38 39 39 39 39 39 40 41 42 43 44 46 46 47
39 40 39 38 37 36 36 35 36 37 38 38 39 36 35 34 33 34 34 33 33 34 34 35 35 35 36 38 39 39 38 38 38 39 39 38 39 40 41 42 43 45 45 46
38 38 38 36 36 35 35 35 35 36 37 38 39 37 35 35 34 34 34 33 33 34 34 35 35 35 36 37 37 38 38 37 37 37 38 38 38 39 40 40 42 43 44 45
37 37 37 35 34 33 34 33 35 36 37 38 38 37 36 36 35 34 33 33 33 33 34 34 34 35 35 35 36 36 36 36 36 36 37 38 38 38 38 39 41 42 42 43
35 36 35 35 34 34 33 33 33 35 36 37 37 36 35 36 35 35 34 33 33 33 34 34 34 35 35 35 35 35 35 35 35 35 35 36 37 36 36 37 38 40 41 42
34 34 34 33 33 33 33 32 32 34 35 37 35 35 34 35 36 35 34 33 33 33 33 33 34 34 34 34 35 35 35 34 34 34 34 34 35 35 35 35 36 38 39 41
34 34 33 32 31 32 32 31 32 32 33 35 35 34 33 34 35 35 34 32 32 32 33 33 33 34 34 34 34 35 35 35 35 35 34 33 34 35 35 35 36 36 37 39
34 34 34 32 30 31 31 30 30 31 30 31 32 33 33 34 34 34 34 33 32 32 32 33 33 33 33 33 33 33 34 34 34 34 34 33 34 33 33 34 34 35 36 37
33 33 33 33 32 31 30 29 29 29 29 30 30 31 31 32 33 34 35 34 33 33 32 32 32 32 32 32 32 33 34 34 33 33 33 33 32 32 33 33 33 34 35 35
32 32 32 31 30 30 29 29 29 29 28 28 29 31 32 32 32 32 33 33 33 32 32 32 31 31 31 30 30 31 32 33 32 32 32 32 32 31 31 31 32 33 34 35
31 31 31 30 30 29 29 29 29 29 29 29 30 31 32 32 32 31 32 32 32 32 33 33 32 31 31 30 30 30 30 31 31 31 31 32 32 31 31 31 32 32 33 34
30 30 30 30 30 29 30 29 29 29 29 30 31 32 32 32 32 32 32 32 32 32 33 33 33 32 31 31 31 30 30 30 30 31 31 31 31 31 31 32 32 32 33 33
30 30 30 29 29 29 30 30 29 29 30 31 32 33 33 32 32 33 33 33 33 33 32 32 32 32 32 31 31 30 30 30 30 30 29 30 31 31 32 31 31 32 33 33
29 30 30 30 30 30 30 30 30 31 31 32 32 33 33 33 33 33 32 33 34 33 33 32 31 31 31 31 31 30 28 28 27 27 27 28 30 31 32 32 32 32 33 33
30 30 30 30 30 30 31 31 32 32 31 32 32 32 32 32 31 31 31 31 32 32 32 31 30 30 30 29 29 28 27 26 25 26 27 27 28 30 30 31 31 32 32 33
29 30 30 30 30 29 30 30 31 30 30 31 32 32 32 32 31 30 29 29 28 29 29 29 29 28 28 27 27 27 27 26 25 25 25 27 27 28 30 31 32 32 33 33
29 30 30 29 29 29 28 28 29 29 29 30 30 30 31 31 30 30 28 28 27 28 27 27 27 27 27 26 25 25 25 25 25 25 25 26 26 27 28 29 31 32 32 32
Wind_Direction
289 288 288 289 288 287 287 287 287 286 285 283 282 280 279 277 276 274 272 271 270 270 270 270 269 269 268 267 266 264 263 262 261 260 259 258 257 256 254 253 251 250 250 250
288 288 288 288 287 287 287 288 288 286 286 284 282 280 279 277 276 274 272 271 271 271 271 272 271 270 269 268 267 266 265 263 261 261 260 259 258 256 254 252 252 250 250 249
288 288 288 287 286 286 287 287 288 287 286 286 285 282 281 278 276 275 274 272 271 272 272 272 272 271 269 268 268 266 264 264 263 262 262 260 258 256 255 253 252 251 249 248
288 288 288 287 285 286 286 287 287 287 287 287 287 285 282 280 279 278 277 275 272 272 273 272 272 271 269 268 268 266 265 264 264 263 262 261 259 257 254 252 251 250 249 248
288 287 286 286 286 286 286 287 287 286 286 286 287 286 285 282 280 279 278 277 274 273 272 271 270 271 271 270 268 266 265 264 265 264 263 262 259 258 256 253 251 249 248 248
287 286 285 285 286 285 285 286 285 285 286 286 287 287 286 284 282 281 280 278 276 274 272 271 270 271 272 272 271 268 266 265 265 265 263 261 259 258 256 254 252 248 247 247
289 286 285 286 286 285 284 285 285 285 285 286 288 287 287 286 284 284 282 280 277 274 273 271 271 273 274 274 273 271 268 266 266 264 264 261 260 258 256 254 251 249 247 247
290 288 287 287 287 287 286 285 285 286 286 287 287 286 287 286 285 285 283 282 279 275 273 272 273 275 275 275 273 272 270 268 266 264 264 262 260 258 256 254 252 250 248 248
292 290 288 287 288 288 287 285 284 285 286 286 287 288 287 287 286 284 283 282 281 277 274 274 275 276 276 275 273 273 272 268 266 264 262 262 261 259 256 254 252 250 249 248
293 291 288 287 287 286 285 285 284 284 286 287 286 288 289 286 284 283 283 282 280 278 276 276 277 277 277 276 275 274 273 269 266 264 262 262 262 259 257 255 252 251 250 249
294 292 291 288 287 286 285 284 283 283 284 285 287 287 289 287 285 284 283 282 280 278 277 278 279 279 278 277 276 275 273 270 267 265 263 262 261 259 257 255 252 252 250 249
297 294 293 291 289 286 284 285 282 281 282 282 284 287 287 286 286 285 284 282 281 280 279 279 280 280 279 278 277 276 273 270 268 266 263 261 261 260 258 256 253 251 250 248
300 297 296 294 290 287 286 286 284 282 282 281 283 286 286 286 283 283 285 283 281 280 280 280 280 280 280 279 278 276 274 271 269 266 263 261 260 260 259 256 254 252 250 248
300 298 296 294 292 289 287 287 285 284 283 283 283 286 285 283 282 282 283 283 282 281 280 280 279 280 281 280 278 276 275 273 270 267 265 262 261 260 258 256 254 253 251 249
299 299 297 295 292 289 288 289 288 285 283 283 283 284 284 281 281 281 281 281 281 281 281 282 280 280 280 279 278 276 274 272 269 268 267 264 261 260 259 257 255 253 251 249
298 298 297 296 292 288 288 289 289 289 288 285 282 282 283 282 281 281 280 280 281 282 282 283 283 282 281 279 279 276 274 271 270 267 266 264 262 260 259 256 255 255 253 251
300 299 297 295 293 291 290 291 290 289 288 287 285 283 282 281 282 282 281 281 283 283 284 285 284 282 281 280 280 278 276 272 270 268 265 263 261 260 258 257 255 254 253 252
301 302 300 298 295 293 293 293 291 291 291 287 287 286 285 284 284 284 283 283 284 284 285 285 285 284 283 280 280 279 278 273 269 266 264 262 261 260 259 258 257 255 254 254
301 303 302 301 298 296 294 294 293 292 290 290 288 286 286 286 286 287 286 285 285 285 286 286 285 285 285 283 281 280 278 274 270 266 263 262 262 261 260 258 256 254 254 255
301 302 301 300 299 299 297 294 293 293 291 289 289 288 288 286 285 287 286 286 286 285 286 287 286 286 286 286 284 281 278 275 271 268 266 263 262 261 260 259 257 257 256 256
303 302 302 301 298 297 296 295 293 293 294 292 291 290 290 288 285 285 285 286 286 287 287 288 288 287 286 285 284 281 277 276 273 270 268 264 262 261 261 260 259 258 259 258
304 303 302 302 301 298 296 295 294 293 293 294 293 291 290 290 288 286 284 285 287 287 288 289 289 289 287 285 283 280 277 275 273 271 268 264 262 262 262 262 261 260 260 259
302 302 301 300 300 298 297 296 296 296 295 295 295 294 293 292 290 288 286 286 286 287 288 288 289 289 287 287 285 282 279 275 273 272 269 266 264 263 262 262 262 262 261 260
300 299 300 300 299 298 298 297 297 299 299 298 297 296 296 294 292 290 289 288 288 287 287 288 289 289 287 286 286 283 280 277 274 274 271 268 266 265 264 263 263 263 262 261
301 299 300 299 299 299 299 300 301 300 300 300 299 299 298 296 294 292 291 290 289 288 286 287 288 289 289 287 286 284 281 278 276 276 273 270 268 265 264 264 264 263 262 263
302 301 302 301 299 299 301 301 301 300 299 299 299 299 299 297 294 292 291 291 290 290 289 288 287 289 290 289 287 284 282 279 278 277 275 272 268 265 264 265 265 264 263 263
Height
5695 5693 5690 5688 5685 5682 5680 5677 5676 5674 5671 5670 5669 5668 5668 5665 5663 5662 5661 5660 5659 5659 5658 5656 5656 5655 5655 5654 5654 5654 5654 5654 5654 5656 5657 5659 5661 5663 5665 5668 5671 5674 5678 5681
5687 5685 5683 5679 5676 5674 5671 5669 5668 5666 5663 5660 5659 5659 5658 5655 5654 5653 5652 5651 5650 5649 5648 5647 5646 5645 5644 5643 5643 5643 5642 5642 5642 5643 5644 5646 5647 5649 5652 5654 5657 5661 5665 5668
5679 5678 5674 5671 5668 5666 5663 5661 5659 5657 5654 5651 5649 5649 5648 5646 5645 5643 5642 5641 5640 5638 5638 5637 5636 5635 5634 5633 5632 5631 5631 5631 5631 5631 5632 5633 5634 5636 5639 5641 5644 5648 5652 5655
5670 5668 5665 5662 5659 5657 5655 5653 5650 5647 5644 5642 5640 5637 5640 5637 5636 5634 5633 5631 5630 5629 5627 5626 5625 5624 5622 5621 5620 5620 5619 5619 5618 5618 5619 5619 5621 5623 5625 5627 5630 5634 5638 5642
5661 5659 5656 5653 5651 5648 5646 5643 5641 5638 5635 5632 5630 5627 5630 5628 5626 5625 5623 5622 5620 5619 5617 5616 5614 5613 5611 5610 5609 5608 5607 5606 5606 5605 5605 5606 5607 5609 5611 5613 5617 5621 5625 5629
5651 5648 5645 5643 5641 5638 5636 5634 5631 5628 5625 5623 5622 5619 5618 5618 5617 5616 5614 5612 5610 5608 5607 5606 5604 5602 5601 5599 5597 5596 5595 5594 5593 5593 5592 5593 5594 5595 5597 5600 5603 5608 5612 5616
5642 5639 5636 5633 5631 5629 5626 5624 5620 5617 5615 5614 5613 5609 5610 5609 5607 5606 5604 5602 5600 5598 5597 5595 5594 5592 5590 5588 5585 5584 5583 5582 5581 5580 5580 5580 5581 5582 5585 5587 5590 5594 5599 5602
5631 5629 5626 5623 5621 5619 5616 5614 5611 5607 5605 5604 5603 5600 5602 5600 5598 5596 5594 5592 5590 5588 5587 5585 5583 5581 5579 5576 5574 5572 5571 5570 5569 5569 5568 5568 5569 5570 5572 5575 5578 5582 5586 5590
5620 5619 5617 5614 5611 5609 5606 5604 5602 5599 5595 5593 5593 5592 5592 5590 5588 5586 5585 5583 5580 5579 5577 5575 5573 5571 5568 5566 5564 5562 5560 5559 5558 5557 5557 5557 5557 5558 5560 5562 5566 5569 5573 5577
5610 5608 5607 5604 5601 5599 5597 5594 5592 5588 5585 5583 5583 5583 5582 5581 5579 5578 5576 5573 5571 5569 5568 5566 5563 5561 5558 5555 5553 5551 5549 5548 5547 5546 5546 5546 5546 5547 5548 5551 5554 5558 5561 5565
5601 5598 5596 5594 5591 5589 5588 5585 5582 5579 5577 5574 5572 5576 5574 5571 5569 5567 5565 5563 5561 5560 5558 5556 5554 5551 5548 5545 5543 5541 5539 5538 5537 5536 5536 5536 5536 5536 5538 5540 5543 5546 5549 5553
5591 5588 5585 5584 5581 5579 5577 5575 5573 5571 5569 5566 5563 5567 5564 5562 5559 5557 5556 5554 5552 5550 5548 5546 5544 5541 5538 5536 5533 5531 5529 5528 5527 5526 5526 5526 5526 5526 5528 5529 5532 5535 5538 5542
5582 5579 5575 5574 5574 5570 5567 5565 5563 5561 5559 5557 5555 5559 5555 5552 5550 5548 5546 5544 5543 5541 5539 5537 5535 5532 5529 5526 5524 5521 5519 5518 5517 5517 5516 5516 5516 5517 5518 5519 5522 5524 5527 5530
5573 5570 5568 5565 5562 5559 5558 5556 5554 5552 5550 5548 5547 5547 5546 5542 5540 5538 5536 5535 5533 5531 5529 5527 5525 5522 5520 5517 5515 5513 5511 5509 5508 5508 5507 5507 5507 5507 5508 5510 5512 5514 5516 5519
5565 5562 5559 5556 5553 5550 5548 5547 5545 5543 5541 5539 5539 5537 5536 5533 5530 5528 5526 5525 5524 5522 5519 5517 5515 5513 5511 5508 5506 5504 5502 5500 5499 5499 5498 5498 5498 5498 5499 5500 5502 5504 5506 5509
5557 5553 5551 5549 5546 5542 5540 5539 5537 5535 5532 5530 5528 5528 5526 5523 5521 5519 5517 5516 5515 5512 5510 5508 5506 5504 5501 5499 5497 5495 5494 5492 5491 5490 5490 5490 5490 5490 5490 5491 5492 5494 5496 5499
5549 5545 5542 5540 5538 5534 5533 5532 5529 5526 5524 5522 5519 5519 5516 5514 5512 5510 5508 5507 5505 5503 5501 5499 5496 5494 5492 5489 5488 5486 5485 5483 5482 5482 5481 5481 5481 5481 5481 5482 5483 5485 5487 5490
5541 5537 5533 5531 5530 5527 5528 5524 5521 5518 5516 5514 5511 5509 5507 5505 5504 5501 5499 5497 5496 5494 5492 5489 5487 5485 5482 5480 5478 5476 5475 5474 5473 5473 5473 5473 5473 5473 5473 5474 5475 5477 5479 5481
5534 5530 5526 5523 5520 5519 5518 5516 5513 5510 5509 5506 5503 5501 5499 5497 5495 5494 5490 5488 5486 5484 5482 5480 5478 5476 5473 5471 5469 5467 5466 5465 5464 5464 5464 5464 5465 5465 5465 5466 5467 5469 5471 5473
5527 5523 5520 5516 5513 5511 5511 5508 5504 5503 5501 5498 5495 5492 5490 5488 5487 5486 5482 5480 5478 5475 5473 5471 5469 5467 5465 5462 5460 5459 5457 5456 5455 5455 5455 5455 5456 5457 5458 5458 5459 5461 5462 5464
5520 5516 5513 5510 5506 5504 5502 5499 5497 5496 5493 5490 5486 5484 5482 5479 5478 5476 5473 5471 5469 5467 5465 5462 5460 5458 5456 5453 5451 5450 5449 5448 5447 5446 5446 5446 5447 5448 5449 5450 5451 5452 5453 5455
5512 5508 5506 5502 5499 5499 5494 5491 5490 5487 5484 5481 5478 5476 5473 5471 5468 5466 5464 5462 5460 5458 5456 5453 5451 5449 5446 5444 5443 5441 5440 5439 5438 5438 5437 5438 5439 5439 5440 5441 5442 5443 5444 5445
5505 5502 5498 5496 5494 5490 5486 5483 5481 5479 5476 5473 5470 5468 5465 5462 5460 5457 5455 5452 5450 5448 5446 5444 5442 5440 5438 5435 5433 5432 5431 5430 5430 5430 5429 5429 5430 5430 5431 5432 5433 5433 5434 5435
5498 5495 5492 5489 5486 5483 5480 5476 5474 5471 5468 5465 5462 5459 5456 5453 5451 5448 5445 5443 5441 5439 5437 5435 5433 5431 5429 5427 5425 5424 5423 5422 5422 5421 5421 5421 5421 5422 5422 5423 5423 5424 5425 5426
5491 5487 5485 5482 5479 5477 5473 5470 5467 5464 5461 5458 5454 5451 5447 5445 5442 5439 5437 5434 5432 5430 5428 5426 5425 5423 5421 5419 5417 5416 5415 5414 5414 5413 5413 5413 5413 5413 5413 5414 5414 5415 5415 5416
5483 5480 5477 5475 5472 5469 5466 5463 5460 5457 5454 5450 5447 5443 5440 5436 5433 5431 5428 5426 5424 5422 5420 5418 5416 5415 5413 5411 5410 5408 5407 5406 5406 5405 5405 5404 5404 5404 5404 5405 5406 5405 5406 5406